Simultaneous Nadir Overpasses (SNOs) Predictions

Prediction of SNOs between LANDSAT-8 and NPP Satellite Orbit:

Table of predicted SNOs for the next 14.0 days since TLE Epoch: 5/17/2014
Index Date (LANDSAT-8) Time (LANDSAT-8) Lat,Lon (LANDSAT-8) SZA (LANDSAT-8 ) Date (NPP) Time (NPP) Lat,Lon (NPP) SZA (NPP ) Distance(km) Time Diff (sec)
1 05/19/2014 10:34:02 70.60, 18.35 50.72 05/19/2014 10:33:20 70.62, 18.37 50.74 2.17 42
2 05/19/2014 11:23:31 -70.54,-174.11 129.35 05/19/2014 11:24:02 -70.54,-174.19 129.35 2.89 31
3 05/22/2014 02:00:53 -71.16, -32.56 129.28 05/22/2014 01:59:43 -71.17, -34.09 129.24 54.73 70
4 05/22/2014 02:50:29 70.57, 134.17 50.13 05/22/2014 02:50:18 70.57, 134.22 50.14 1.90 11
5 05/22/2014 03:39:58 -70.51, -58.28 129.94 05/22/2014 03:41:00 -70.49, -58.33 129.96 2.71 62
6 05/24/2014 18:17:28 -70.67, 82.57 130.27 05/24/2014 18:16:32 -70.65, 82.55 130.28 2.47 56
7 05/24/2014 19:06:55 70.57,-109.95 49.62 05/24/2014 19:07:17 70.58,-110.02 49.64 3.14 22
8 05/24/2014 19:56:38 -69.74, 56.51 131.19 05/24/2014 19:57:45 -69.76, 58.57 131.21 79.33 67
9 05/27/2014 09:44:11 71.48, 32.08 50.07 05/27/2014 09:43:04 71.53, 29.49 50.18 91.35 67
10 05/27/2014 10:33:55 -70.60,-161.66 130.80 05/27/2014 10:33:30 -70.61,-161.61 130.79 1.97 25
11 05/27/2014 11:23:22 70.50, 5.83 49.09 05/27/2014 11:24:14 70.49, 5.89 49.08 2.54 52
12 05/30/2014 02:00:50 70.68, 146.71 48.86 05/30/2014 01:59:45 70.67, 146.75 48.86 2.10 65
13 05/30/2014 02:50:20 -70.57, -45.82
